Voltar ao catálogo

IRIDIUM 47 DEB

AtivoPO
NORAD 40251·DEBRIS·🇺🇸 United States

Lançado Dec 20, 1997 de Vandenberg Space Force Base

Loading…

Próximas Passagens (próximas 24 horas)

TLE

AtualizadoSource: Space-Track

Época: Sep 13, 2026, 04:25 UTC

1 40251U 97082L   26256.18415693  .00004996  00000-0  16329-2 0  9997
2 40251  86.3282 338.8791 0118609 219.0722 140.1865 14.34440027614342

Acompanhe IRIDIUM 47 DEB em tempo real com AllMySat

Download on the App Store